CW9879 Weather Reports


time (UTC)temp
C
wind
direction
speed
KPH
gust
KPH
rain 1hr
cm
rain 24hr
cm
rain mn
cm
humidity
%
barometer
mb
20260505171511 27 221 3.2 17.7 0.00 0.00 0.00 35 1012.7
20260505170019 28 89 1.6 9.7 0.00 0.00 0.00 36 1012.8
20260505164520 28 147 1.6 12.9 0.00 0.00 0.00 39 1013.1
20260505163009 27 278 1.6 9.7 0.00 0.00 0.00 38 1013.3
20260505161508 27 158 0.0 12.9 0.00 0.00 0.00 41 1013.5
20260505153023 26 269 0.0 9.7 0.00 0.00 0.00 44 1013.9
20260505151507 25 101 1.6 6.4 0.00 0.00 0.00 47 1013.8
20260505124504 17 315 0.0 4.8 0.00 0.00 0.00 63 1014.0
20260505123003 16 194 0.0 4.8 0.00 0.00 0.00 64 1014.0
20260505121508 16 194 0.0 9.7 0.00 0.00 0.00 65 1014.0
20260505120006 16 226 1.6 4.8 0.00 0.00 0.00 66 1013.9
20260505114506 16 221 0.0 6.4 0.00 0.00 0.00 66 1013.7
20260505113016 15 107 0.0 8.0 0.00 0.00 0.00 66 1013.6
20260505111507 15 214 0.0 6.4 0.00 0.00 0.00 66 1013.5
20260505101513 15 143 0.0 6.4 0.00 0.00 0.00 64 1013.1
20260505100019 15 235 0.0 4.8 0.00 0.00 0.00 64 1013.0
20260505094510 16 203 0.0 4.8 0.00 0.00 0.00 64 1013.0
20260505093020 16 161 0.0 6.4 0.00 0.00 0.00 63 1013.0
20260505091511 16 110 0.0 11.3 0.00 0.00 0.00 63 1013.1
20260505090014 16 117 0.0 4.8 0.00 0.00 0.00 62 1013.0
20260505084512 16 217 0.0 6.4 0.00 0.00 0.00 62 1013.0
20260505083014 15 205 0.0 4.8 0.00 0.00 0.00 62 1012.8
20260505081512 15 140 0.0 4.8 0.00 0.00 0.00 63 1012.7
20260505080014 15 126 0.0 3.2 0.00 0.00 0.00 63 1012.7
20260505074514 15 219 0.0 3.2 0.00 0.00 0.00 64 1012.6
20260505073018 15 98 0.0 4.8 0.00 0.00 0.00 64 1012.6
20260505071518 15 190 0.0 3.2 0.00 0.00 0.00 65 1012.5
20260505070006 15 63 0.0 3.2 0.00 0.00 0.00 66 1012.4
20260505064510 15 240 0.0 3.2 0.00 0.00 0.00 67 1012.3
20260505063004 15 144 0.0 3.2 0.00 0.00 0.00 69 1012.4
20260505061507 15 163 0.0 3.2 0.00 0.00 0.00 69 1012.2
20260505060024 15 74 0.0 1.6 0.00 0.00 0.00 67 1012.2
20260505054516 15 76 0.0 3.2 0.00 0.00 0.00 65 1012.1
20260505053012 16 113 0.0 3.2 0.00 0.00 0.00 65 1012.2
20260505051507 16 218 0.0 1.6 0.00 0.00 0.00 65 1012.2
20260505041512 16 143 0.0 3.2 0.00 0.00 0.00 66 1011.7
20260505040008 16 109 0.0 1.6 0.00 0.00 0.00 66 1011.7
20260505034513 16 103 0.0 1.6 0.00 0.00 0.00 63 1011.8
20260505033019 17 236 0.0 0.0 0.00 0.00 0.00 61 1011.9
20260505031516 18 236 0.0 0.0 0.00 0.00 0.00 59 1011.9
20260505030025 18 236 0.0 3.2 0.00 0.00 0.00 56 1012.1
20260505024508 18 229 0.0 4.8 0.00 0.00 0.00 55 1012.2
20260505023015 18 211 0.0 4.8 0.00 0.00 0.00 56 1012.2
20260505021516 18 182 0.0 3.2 0.00 0.00 0.00 54 1012.1
20260505020017 19 288 0.0 1.6 0.00 0.00 0.00 54 1012.1
20260505014517 20 245 0.0 1.6 0.00 0.00 0.00 52 1012.0
20260505013012 20 184 0.0 1.6 0.00 0.00 0.00 50 1011.9
20260505011518 21 186 0.0 1.6 0.00 0.00 0.00 48 1011.7
20260505010018 21 182 0.0 4.8 0.00 0.00 0.00 46 1011.6
20260505004535 21 228 0.0 3.2 0.00 0.00 0.00 45 1011.6
20260505003007 21 269 0.0 3.2 0.00 0.00 0.00 45 1011.6
20260505001515 22 201 0.0 1.6 0.00 0.00 0.00 42 1011.4
20260505000021 22 239 0.0 6.4 0.00 0.00 0.00 42 1011.4
20260504234528 22 223 0.0 6.4 0.00 0.00 0.00 40 1011.2
20260504233008 23 140 0.0 4.8 0.00 0.00 0.00 39 1011.2
20260504231528 23 140 0.0 4.8 0.00 0.00 0.00 39 1011.1
20260504230017 23 66 0.0 14.5 0.00 0.00 0.00 39 1011.0
20260504224520 23 62 0.0 11.3 0.00 0.00 0.00 38 1011.0
20260504223022 23 84 0.0 8.0 0.00 0.00 0.00 38 1010.9
20260504221509 23 213 0.0 9.7 0.00 0.00 0.00 38 1011.0
20260504220011 24 270 1.6 9.7 0.00 0.00 0.00 37 1011.2
20260504214524 24 216 1.6 8.0 0.00 0.00 0.00 36 1011.1
20260504213029 25 315 1.6 8.0 0.00 0.00 0.00 37 1011.0
20260504211526 25 221 0.0 8.0 0.00 0.00 0.00 38 1011.0
20260504210013 24 246 0.0 9.7 0.00 0.00 0.00 36 1011.1
20260504204542 24 178 1.6 12.9 0.00 0.00 0.00 36 1011.2
20260504203024 24 223 0.0 4.8 0.00 0.00 0.00 35 1011.0
20260504201525 24 221 0.0 11.3 0.00 0.00 0.00 37 1011.3
20260504200030 23 149 1.6 6.4 0.00 0.00 0.00 36 1011.5
20260504194512 23 309 1.6 8.0 0.00 0.00 0.00 37 1011.6
20260504193023 23 84 0.0 9.7 0.00 0.00 0.00 36 1011.8
20260504191521 23 317 0.0 6.4 0.00 0.00 0.00 38 1011.9
20260504190033 25 197 1.6 9.7 0.00 0.00 0.00 33 1012.1
20260504184526 25 107 1.6 6.4 0.00 0.00 0.00 33 1012.3
20260504183018 25 202 1.6 9.7 0.00 0.00 0.00 33 1012.4
20260504181504 25 101 1.6 11.3 0.00 0.00 0.00 32 1012.9
20260504180004 25 171 1.6 9.7 0.00 0.00 0.00 31 1013.1
20260504174509 25 294 1.6 6.4 0.00 0.00 0.00 31 1013.2
20260504173013 25 328 0.0 9.7 0.00 0.00 0.00 34 1013.3